Terug naar catalogus

STARLINK-11512

ActiefCommunicatieVLEO
NORAD 62517·PAYLOAD·🇺🇸 United States

Gelanceerd Jan 8, 2025 vanaf Cape Canaveral Space Force Station

Loading…

Volgende Passages (komende 24 uur)

TLE

VersSource: CelesTrak SupGP

Epoch: Sep 14, 2026, 21:25 UTC

1 62517C 25004G   26257.89284722  .00027325  00000+0  21215-3 0  2575
2 62517  43.0008   9.8705 0001675 275.6193 306.2531 15.70833241    14

Volg STARLINK-11512 in realtime met AllMySat

Download on the App Store